Location: Asheville, NC
(35.6000°N, 82.5500°W)
Time: 00:29:29
(UTC-04:00)

Vanguard 2 Rocket - Pass Details

Date: 11 March 2018
Orbit: 553 x 3328 km, 32.9° (Epoch: 18 June)

Event Time Altitude Azimuth Distance (km) Brightness Sun altitude
Rises 01:01:50 0° 271° (W) 4,653 - -57.7°
Reaches altitude 10° 01:05:15 10° 258° (WSW) 4,055 - -57.6°
Maximum altitude 01:13:56 25° 209° (SSW) 3,822 - -57.2°
Drops below altitude 10° 01:26:13 10° 163° (SSE) 5,827 - -56.4°
Sets 01:32:40 0° 152° (SSE) 7,135 - -55.9°
